Greenwood, FL

8:24 AM CST on February 12, 2016 (GMT -0600)
Marianna Municipal

Weather History for KMAI - January, 2013

Change the Weather History Date:

Monday, January 28, 2013

  Actual Average Record
Temperature  
Mean Temperature 67 °F 51 °F  
Max Temperature 77 °F 62 °F 77 °F (2013)
Min Temperature 56 °F 40 °F 27 °F (2003)
Degree Days  
Heating Degree Days 0    
Month to date heating degree days 218  
Since 1 July heating degree days 709  
Cooling Degree Days 2    
Month to date cooling degree days 48  
Year to date cooling degree days 48  
Growing Degree Days 16 (Base 50)    
Moisture  
Dew Point 56 °F    
Average Humidity 72    
Maximum Humidity 93    
Minimum Humidity 50    
Precipitation  
Precipitation 0.00 in 0.16 in 0.38 in (2009)
Month to date precipitation 0.51 4.46  
Year to date precipitation 0.51 4.46  
Sea Level Pressure  
Sea Level Pressure 30.28 in    
Wind  
Wind Speed 6 mph (SE)    
Max Wind Speed 14 mph    
Max Gust Speed 18 mph    
Visibility 10 miles    
Events      
T = Trace of Precipitation, MM = Missing Value Source: NWS Daily Summary

Daily Weather History Graph

Daily Weather History Graph

Search for Another Location

Airport or City:

Trip Planner

Search our weather history database for the weather conditions in past years. The results will help you decide how hot, cold, wet, or windy it might be!

Date:

Astronomy

Jan. 28, 2013 Rise Set
Actual Time 6:34 AM CST 5:13 PM CST
Civil Twilight 6:09 AM CST 5:38 PM CST
Nautical Twilight 5:39 AM CST 6:07 PM CST
Astronomical Twilight 5:11 AM CST 6:36 PM CST
Moon 6:55 PM CST (1/28) 7:09 AM CST (1/28)
Length of Visible Light 11h 29m
Length of Day
10h 38m
Full, 98% of the Moon is Illuminated
Jan 28
Full
Feb 3
Last Quarter
Feb 10
New
Feb 17
First Quarter
Feb 25
Full

Hourly Weather History & Observations

Time (CST) Temp. Dew Point Humidity Pressure Visibility Wind Dir Wind Speed Gust Speed Precip Events Conditions
12:53 AM 59.0 °F 53.1 °F 81% 30.30 in 10.0 mi Calm Calm - N/A   Partly Cloudy
1:53 AM 57.9 °F 52.0 °F 81% 30.30 in 10.0 mi East 4.6 mph - N/A   Partly Cloudy
2:53 AM 55.9 °F 52.0 °F 87% 30.30 in 10.0 mi East 3.5 mph - N/A   Clear
3:10 AM 57.2 °F 51.8 °F 82% 30.31 in 10.0 mi Calm Calm - N/A   Mostly Cloudy
3:53 AM 57.0 °F 53.1 °F 87% 30.31 in 10.0 mi Calm Calm - N/A   Overcast
4:53 AM 57.0 °F 53.1 °F 87% 30.30 in 10.0 mi East 4.6 mph - N/A   Overcast
5:53 AM 57.9 °F 53.1 °F 84% 30.32 in 10.0 mi ESE 5.8 mph - N/A   Overcast
6:53 AM 57.9 °F 53.1 °F 84% 30.33 in 10.0 mi East 6.9 mph - N/A   Overcast
7:01 AM 57.2 °F 53.6 °F 88% 30.34 in 10.0 mi East 4.6 mph - N/A   Overcast
7:53 AM 59.0 °F 54.0 °F 83% 30.34 in 10.0 mi Variable 4.6 mph - N/A   Overcast
8:28 AM 60.8 °F 53.6 °F 77% 30.33 in 10.0 mi East 8.1 mph - N/A   Scattered Clouds
8:53 AM 62.1 °F 55.0 °F 78% 30.34 in 10.0 mi ESE 9.2 mph - N/A   Mostly Cloudy
9:53 AM 66.9 °F 57.0 °F 70% 30.34 in 10.0 mi Variable 5.8 mph - N/A   Clear
10:53 AM 72.0 °F 59.0 °F 64% 30.32 in 10.0 mi SE 9.2 mph - N/A   Mostly Cloudy
11:53 AM 75.0 °F 57.9 °F 55% 30.28 in 10.0 mi South 13.8 mph 17.3 mph N/A   Scattered Clouds
12:53 PM 73.9 °F 57.0 °F 55% 30.26 in 10.0 mi South 11.5 mph - N/A   Partly Cloudy
1:53 PM 75.0 °F 57.0 °F 53% 30.24 in 10.0 mi South 9.2 mph - N/A   Mostly Cloudy
2:53 PM 77.0 °F 57.0 °F 50% 30.24 in 10.0 mi SSW 9.2 mph - N/A   Scattered Clouds
3:53 PM 75.9 °F 57.0 °F 52% 30.23 in 10.0 mi South 9.2 mph - N/A   Scattered Clouds
4:53 PM 73.0 °F 57.9 °F 59% 30.24 in 10.0 mi South 5.8 mph - N/A   Mostly Cloudy
5:53 PM 71.1 °F 59.0 °F 66% 30.24 in 10.0 mi SSE 4.6 mph - N/A   Overcast
6:53 PM 69.1 °F 60.1 °F 73% 30.25 in 10.0 mi SSE 3.5 mph - N/A   Clear
7:53 PM 66.9 °F 60.1 °F 79% 30.25 in 10.0 mi SSE 4.6 mph - N/A   Scattered Clouds
8:53 PM 66.0 °F 60.1 °F 81% 30.25 in 10.0 mi SSE 3.5 mph - N/A   Partly Cloudy
9:53 PM 64.0 °F 60.1 °F 87% 30.24 in 10.0 mi SE 3.5 mph - N/A   Clear
10:53 PM 63.0 °F 60.1 °F 90% 30.23 in 10.0 mi Calm Calm - N/A   Clear
11:53 PM 63.0 °F 60.1 °F 90% 30.21 in 10.0 mi Calm Calm - N/A   Overcast